SL-4 RB1 37255U 10067B 10352.55194267 .05880126 12361-4 53388-3 0 1412 37255 051.6174 006.2350 0013310 082.6110 278.6234 16.37771425 421
SL-4 RB1 37255U 10067B 10351.26615196 .02416529 12099-4 57549-3 0 1142 37255 051.6262 013.4217 0020723 080.3485 280.4426 16.28109198 210
OBJECT B1 37255U 10067B 10350.42915630 -.00003793 11992-4 00000+0 0 732 37255 051.6305 018.0620 0023806 082.6451 054.4081 16.24429101 75